Time,TemperatureF,DewpointF,PressureIn,WindDirection,WindDirectionDegrees,WindSpeedMPH,WindSpeedGustMPH,Humidity,HourlyPrecipIn,Conditions,Clouds,dailyrainin,SoftwareType,DateUTC
2013-08-19 00:02:00,59.5,55.0,30.13,NNE,22,0.0,0.0,85,0.00,,,0.00,WUHU21423XXSP,2013-08-19 04:02:00,
2013-08-19 00:06:00,59.4,54.9,30.13,NNE,22,0.0,0.0,85,0.00,,,0.00,WUHU21423XXSP,2013-08-19 04:06:00,
2013-08-19 00:09:00,59.2,54.7,30.13,NNE,22,0.0,0.0,85,0.00,,,0.00,WUHU21423XXSP,2013-08-19 04:09:00,
2013-08-19 00:15:00,58.8,54.6,30.13,NNE,22,0.0,0.0,86,0.00,,,0.00,WUHU21423XXSP,2013-08-19 04:15:00,
2013-08-19 00:17:00,58.8,54.6,30.13,NNE,22,0.0,0.0,86,0.00,,,0.00,WUHU21423XXSP,2013-08-19 04:17:00,
2013-08-19 00:24:00,58.8,54.6,30.13,NNE,22,0.0,0.0,86,0.00,,,0.00,WUHU21423XXSP,2013-08-19 04:24:00,
2013-08-19 00:28:00,58.8,54.6,30.13,NNE,22,0.0,0.0,86,0.00,,,0.00,WUHU21423XXSP,2013-08-19 04:28:00,
2013-08-19 00:34:00,58.5,54.3,30.13,NNE,22,0.0,0.0,86,0.00,,,0.00,WUHU21423XXSP,2013-08-19 04:34:00,
2013-08-19 00:41:00,58.3,54.1,30.13,NNE,22,0.0,0.0,86,0.00,,,0.00,WUHU21423XXSP,2013-08-19 04:41:00,
2013-08-19 00:47:00,58.1,53.9,30.13,NNE,22,0.0,0.0,86,0.00,,,0.00,WUHU21423XXSP,2013-08-19 04:47:00,
2013-08-19 00:54:00,58.1,54.2,30.13,NNE,22,0.0,0.0,87,0.00,,,0.00,WUHU21423XXSP,2013-08-19 04:54:00,
2013-08-19 01:10:00,58.1,54.2,30.13,NNE,22,0.0,0.0,87,0.00,,,0.00,WUHU21423XXSP,2013-08-19 05:10:00,
2013-08-19 01:15:00,57.7,53.9,30.13,NNE,22,0.0,0.0,87,0.00,,,0.00,WUHU21423XXSP,2013-08-19 05:15:00,
2013-08-19 01:21:00,57.4,53.7,30.13,NNE,22,0.0,0.0,87,0.00,,,0.00,WUHU21423XXSP,2013-08-19 05:21:00,
2013-08-19 01:55:00,57.2,55.2,30.10,NE,45,0.0,0.0,93,0.00,,,0.00,WUHU21623XXSP,2013-08-19 05:55:00,
2013-08-19 02:00:00,57.0,55.0,30.10,NE,45,0.0,0.0,93,0.00,,,0.00,WUHU21623XXSP,2013-08-19 06:00:00,
2013-08-19 02:05:00,57.0,55.0,30.10,NE,45,0.0,0.0,93,0.00,,,0.00,WUHU21623XXSP,2013-08-19 06:05:00,
2013-08-19 02:10:00,57.0,55.0,30.10,NE,45,0.0,0.0,93,0.00,,,0.00,WUHU21623XXSP,2013-08-19 06:10:00,
2013-08-19 02:15:00,56.8,54.8,30.10,NE,45,0.0,0.0,93,0.00,,,0.00,WUHU21623XXSP,2013-08-19 06:15:00,
2013-08-19 02:21:00,56.5,54.5,30.10,NE,45,0.0,0.0,93,0.00,,,0.00,WUHU21623XXSP,2013-08-19 06:21:00,
2013-08-19 02:26:00,56.5,54.5,30.10,NE,45,0.0,0.0,93,0.00,,,0.00,WUHU21623XXSP,2013-08-19 06:26:00,
2013-08-19 02:31:00,56.5,54.5,30.10,NE,45,0.0,0.0,93,0.00,,,0.00,WUHU21623XXSP,2013-08-19 06:31:00,
2013-08-19 02:36:00,56.5,54.5,30.10,NE,45,0.0,0.0,93,0.00,,,0.00,WUHU21623XXSP,2013-08-19 06:36:00,
2013-08-19 02:41:00,56.5,54.5,30.10,NE,45,0.0,0.0,93,0.00,,,0.00,WUHU21623XXSP,2013-08-19 06:41:00,
2013-08-19 02:46:00,56.5,54.5,30.10,NE,45,0.0,0.0,93,0.00,,,0.00,WUHU21623XXSP,2013-08-19 06:46:00,
2013-08-19 02:51:00,56.5,54.5,30.10,NE,45,0.0,0.0,93,0.00,,,0.00,WUHU21623XXSP,2013-08-19 06:51:00,
2013-08-19 02:56:00,55.8,52.6,30.12,NNE,22,0.0,0.0,89,0.00,,,0.00,WUHU21423XXSP,2013-08-19 06:56:00,
2013-08-19 03:03:00,55.6,52.4,30.12,NNE,22,0.0,0.0,89,0.00,,,0.00,WUHU21423XXSP,2013-08-19 07:03:00,
2013-08-19 03:09:00,55.6,52.4,30.12,NNE,22,0.0,0.0,89,0.00,,,0.00,WUHU21423XXSP,2013-08-19 07:09:00,
2013-08-19 03:15:00,55.6,52.4,30.12,NNE,22,0.0,0.0,89,0.00,,,0.00,WUHU21423XXSP,2013-08-19 07:15:00,
2013-08-19 03:21:00,55.4,52.2,30.12,NNE,22,0.0,0.0,89,0.00,,,0.00,WUHU21423XXSP,2013-08-19 07:21:00,
2013-08-19 03:28:00,55.4,52.2,30.12,NNE,22,0.0,0.0,89,0.00,,,0.00,WUHU21423XXSP,2013-08-19 07:28:00,
2013-08-19 03:34:00,55.2,52.0,30.11,NNE,22,0.0,0.0,89,0.00,,,0.00,WUHU21423XXSP,2013-08-19 07:34:00,
2013-08-19 03:41:00,55.2,52.0,30.12,NNE,22,0.0,0.0,89,0.00,,,0.00,WUHU21423XXSP,2013-08-19 07:41:00,
2013-08-19 03:47:00,55.0,51.8,30.12,NNE,22,0.0,0.0,89,0.00,,,0.00,WUHU21423XXSP,2013-08-19 07:47:00,
2013-08-19 03:53:00,54.9,51.7,30.12,NNE,22,0.0,0.0,89,0.00,,,0.00,WUHU21423XXSP,2013-08-19 07:53:00,
2013-08-19 04:00:00,54.7,51.8,30.12,NNE,22,0.0,0.0,90,0.00,,,0.00,WUHU21423XXSP,2013-08-19 08:00:00,
2013-08-19 04:06:00,54.5,51.6,30.12,NNE,22,0.0,0.0,90,0.00,,,0.00,WUHU21423XXSP,2013-08-19 08:06:00,
2013-08-19 04:13:00,54.3,51.4,30.12,NNE,22,0.0,0.0,90,0.00,,,0.00,WUHU21423XXSP,2013-08-19 08:13:00,
2013-08-19 04:19:00,54.1,51.3,30.12,NNE,22,0.0,0.0,90,0.00,,,0.00,WUHU21423XXSP,2013-08-19 08:19:00,
2013-08-19 04:26:00,54.3,51.4,30.12,NNE,22,0.0,0.0,90,0.00,,,0.00,WUHU21423XXSP,2013-08-19 08:26:00,
2013-08-19 04:32:00,54.1,51.3,30.12,NNE,22,0.0,0.0,90,0.00,,,0.00,WUHU21423XXSP,2013-08-19 08:32:00,
2013-08-19 04:38:00,54.1,51.3,30.12,NNE,22,0.0,0.0,90,0.00,,,0.00,WUHU21423XXSP,2013-08-19 08:38:00,
2013-08-19 04:45:00,53.8,51.1,30.12,NNE,22,0.0,0.0,90,0.00,,,0.00,WUHU21423XXSP,2013-08-19 08:45:00,
2013-08-19 04:51:00,53.8,50.9,30.12,NNE,22,0.0,0.0,90,0.00,,,0.00,WUHU21423XXSP,2013-08-19 08:51:00,
2013-08-19 04:58:00,53.8,50.9,30.12,NNE,22,0.0,0.0,90,0.00,,,0.00,WUHU21423XXSP,2013-08-19 08:58:00,
2013-08-19 05:04:00,53.8,50.9,30.11,NNE,22,0.0,0.0,90,0.00,,,0.00,WUHU21423XXSP,2013-08-19 09:04:00,
2013-08-19 05:11:00,53.8,50.9,30.12,NNE,22,0.0,0.0,90,0.00,,,0.00,WUHU21423XXSP,2013-08-19 09:11:00,
2013-08-19 05:17:00,53.8,50.9,30.12,NNE,22,0.0,0.0,90,0.00,,,0.00,WUHU21423XXSP,2013-08-19 09:17:00,
2013-08-19 05:24:00,53.4,50.5,30.12,NNE,22,0.0,0.0,90,0.00,,,0.00,WUHU21423XXSP,2013-08-19 09:24:00,
2013-08-19 05:30:00,53.4,50.5,30.12,NNE,22,0.0,0.0,90,0.00,,,0.00,WUHU21423XXSP,2013-08-19 09:30:00,
2013-08-19 05:36:00,53.4,50.5,30.12,NNE,22,0.0,0.0,90,0.00,,,0.00,WUHU21423XXSP,2013-08-19 09:36:00,
2013-08-19 05:43:00,53.2,50.5,30.12,NNE,22,0.0,0.0,90,0.00,,,0.00,WUHU21423XXSP,2013-08-19 09:43:00,
2013-08-19 05:49:00,53.2,50.4,30.12,NNE,22,0.0,0.0,90,0.00,,,0.00,WUHU21423XXSP,2013-08-19 09:49:00,
2013-08-19 05:56:00,53.2,50.4,30.12,NNE,22,0.0,0.0,90,0.00,,,0.00,WUHU21423XXSP,2013-08-19 09:56:00,
2013-08-19 06:02:00,53.2,50.4,30.12,NNE,22,0.0,0.0,90,0.00,,,0.00,WUHU21423XXSP,2013-08-19 10:02:00,
2013-08-19 06:09:00,53.2,50.4,30.12,NNE,22,0.0,0.0,90,0.00,,,0.00,WUHU21423XXSP,2013-08-19 10:09:00,
2013-08-19 06:15:00,53.2,50.4,30.12,NNE,22,0.0,0.0,90,0.00,,,0.00,WUHU21423XXSP,2013-08-19 10:15:00,
2013-08-19 06:21:00,53.2,50.4,30.12,NNE,22,0.0,0.0,90,0.00,,,0.00,WUHU21423XXSP,2013-08-19 10:21:00,
2013-08-19 06:28:00,53.2,50.6,30.12,NNE,22,0.0,0.0,91,0.00,,,0.00,WUHU21423XXSP,2013-08-19 10:28:00,
2013-08-19 06:34:00,53.2,50.6,30.12,NNE,22,0.0,0.0,91,0.00,,,0.00,WUHU21423XXSP,2013-08-19 10:34:00,
2013-08-19 06:41:00,53.2,50.6,30.12,NNE,22,0.0,0.0,91,0.00,,,0.00,WUHU21423XXSP,2013-08-19 10:41:00,
2013-08-19 06:47:00,53.2,50.6,30.12,NNE,22,0.0,0.0,91,0.00,,,0.00,WUHU21423XXSP,2013-08-19 10:47:00,
2013-08-19 06:54:00,53.4,50.8,30.11,NNE,22,0.0,0.0,91,0.00,,,0.00,WUHU21423XXSP,2013-08-19 10:54:00,
2013-08-19 07:00:00,53.8,51.2,30.11,NNE,22,0.0,0.0,91,0.00,,,0.00,WUHU21423XXSP,2013-08-19 11:00:00,
2013-08-19 07:06:00,54.5,52.2,30.11,NNE,22,0.0,0.0,92,0.00,,,0.00,WUHU21423XXSP,2013-08-19 11:06:00,
2013-08-19 07:13:00,55.2,52.9,30.12,NNE,22,0.0,0.0,92,0.00,,,0.00,WUHU21423XXSP,2013-08-19 11:13:00,
2013-08-19 07:19:00,56.3,54.0,30.12,NNE,22,0.0,0.0,92,0.00,,,0.00,WUHU21423XXSP,2013-08-19 11:19:00,
2013-08-19 07:26:00,57.4,54.7,30.12,NNE,22,0.0,0.0,93,0.00,,,0.00,WUHU21423XXSP,2013-08-19 11:26:00,
2013-08-19 07:32:00,58.5,56.4,30.12,NNE,22,0.0,0.0,93,0.00,,,0.00,WUHU21423XXSP,2013-08-19 11:32:00,
2013-08-19 07:39:00,59.5,57.5,30.12,NNE,22,0.0,0.0,93,0.00,,,0.00,WUHU21423XXSP,2013-08-19 11:39:00,
2013-08-19 07:45:00,60.6,58.6,30.12,NNE,22,0.0,0.0,93,0.00,,,0.00,WUHU21423XXSP,2013-08-19 11:45:00,
2013-08-19 07:51:00,61.9,59.9,30.12,NNE,22,0.0,0.0,93,0.00,,,0.00,WUHU21423XXSP,2013-08-19 11:51:00,
2013-08-19 07:58:00,63.0,60.9,30.12,NNE,22,0.0,0.0,93,0.00,,,0.00,WUHU21423XXSP,2013-08-19 11:58:00,
2013-08-19 08:04:00,64.0,62.0,30.12,WSW,247,0.0,0.0,93,0.00,,,0.00,WUHU21423XXSP,2013-08-19 12:04:00,
2013-08-19 08:11:00,65.1,63.0,30.12,SW,225,0.0,0.0,93,0.00,,,0.00,WUHU21423XXSP,2013-08-19 12:11:00,
2013-08-19 08:17:00,66.0,63.9,30.12,SW,225,0.0,0.0,93,0.00,,,0.00,WUHU21423XXSP,2013-08-19 12:17:00,
2013-08-19 08:23:00,66.9,64.5,30.12,SW,225,0.0,0.0,92,0.00,,,0.00,WUHU21423XXSP,2013-08-19 12:23:00,
2013-08-19 08:30:00,68.2,65.0,30.12,SW,225,0.0,0.0,92,0.00,,,0.00,WUHU21423XXSP,2013-08-19 12:30:00,
2013-08-19 08:36:00,68.9,66.5,30.12,SSW,202,0.0,0.0,92,0.00,,,0.00,WUHU21423XXSP,2013-08-19 12:36:00,
2013-08-19 08:43:00,69.8,67.0,30.12,SSW,202,0.0,1.0,91,0.00,,,0.00,WUHU21423XXSP,2013-08-19 12:43:00,
2013-08-19 08:49:00,70.7,67.3,30.12,SSW,202,0.0,2.0,89,0.00,,,0.00,WUHU21423XXSP,2013-08-19 12:49:00,
2013-08-19 08:56:00,71.8,67.7,30.12,WSW,247,0.0,7.0,87,0.00,,,0.00,WUHU21423XXSP,2013-08-19 12:56:00,
2013-08-19 09:02:00,72.5,67.4,30.12,SW,225,7.0,7.0,84,0.00,,,0.00,WUHU21423XXSP,2013-08-19 13:02:00,
2013-08-19 09:08:00,73.4,67.3,30.11,WSW,247,1.0,7.0,81,0.00,,,0.00,WUHU21423XXSP,2013-08-19 13:08:00,
2013-08-19 09:15:00,74.1,67.6,30.11,SW,225,4.0,7.0,80,0.00,,,0.00,WUHU21423XXSP,2013-08-19 13:15:00,
2013-08-19 09:21:00,75.0,67.7,30.11,SW,225,1.0,7.0,78,0.00,,,0.00,WUHU21423XXSP,2013-08-19 13:21:00,
2013-08-19 09:28:00,75.6,67.5,30.11,SSW,202,3.0,7.0,76,0.00,,,0.00,WUHU21423XXSP,2013-08-19 13:28:00,
2013-08-19 09:34:00,75.9,67.0,30.11,WSW,247,1.0,6.0,74,0.00,,,0.00,WUHU21423XXSP,2013-08-19 13:34:00,
2013-08-19 09:41:00,76.5,66.8,30.11,SW,225,8.0,8.0,72,0.00,,,0.00,WUHU21423XXSP,2013-08-19 13:41:00,
2013-08-19 09:47:00,76.8,67.1,30.12,West,270,7.0,8.0,72,0.00,,,0.00,WUHU21423XXSP,2013-08-19 13:47:00,
2013-08-19 09:53:00,77.5,67.0,30.11,WSW,247,8.0,8.0,70,0.00,,,0.00,WUHU21423XXSP,2013-08-19 13:53:00,
2013-08-19 10:00:00,77.9,66.9,30.11,South,180,9.0,10.0,69,0.00,,,0.00,WUHU21423XXSP,2013-08-19 14:00:00,
2013-08-19 10:06:00,78.1,66.7,30.11,SW,225,9.0,10.0,68,0.00,,,0.00,WUHU21423XXSP,2013-08-19 14:06:00,
2013-08-19 10:13:00,78.4,66.5,30.11,SW,225,0.0,9.0,67,0.00,,,0.00,WUHU21423XXSP,2013-08-19 14:13:00,
2013-08-19 10:19:00,78.6,66.3,30.11,SSW,202,6.0,8.0,66,0.00,,,0.00,WUHU21423XXSP,2013-08-19 14:19:00,
2013-08-19 10:26:00,79.0,66.6,30.10,West,270,0.0,8.0,66,0.00,,,0.00,WUHU21423XXSP,2013-08-19 14:26:00,
2013-08-19 10:32:00,79.3,67.0,30.11,WSW,247,5.0,6.0,66,0.00,,,0.00,WUHU21423XXSP,2013-08-19 14:32:00,
2013-08-19 10:38:00,79.7,66.9,30.10,WSW,247,7.0,7.0,65,0.00,,,0.00,WUHU21423XXSP,2013-08-19 14:38:00,
2013-08-19 10:45:00,80.2,67.4,30.10,WSW,247,2.0,7.0,65,0.00,,,0.00,WUHU21423XXSP,2013-08-19 14:45:00,
2013-08-19 10:51:00,80.4,67.1,30.10,West,270,0.0,7.0,64,0.00,,,0.00,WUHU21423XXSP,2013-08-19 14:51:00,
2013-08-19 10:58:00,81.0,67.6,30.10,SW,225,0.0,5.0,64,0.00,,,0.00,WUHU21423XXSP,2013-08-19 14:58:00,
2013-08-19 11:04:00,81.3,67.5,30.10,WSW,247,6.0,7.0,63,0.00,,,0.00,WUHU21423XXSP,2013-08-19 15:04:00,
2013-08-19 11:11:00,81.3,67.0,30.10,West,270,0.0,7.0,62,0.00,,,0.00,WUHU21423XXSP,2013-08-19 15:11:00,
2013-08-19 11:17:00,81.7,67.4,30.10,WSW,247,0.0,2.0,62,0.00,,,0.00,WUHU21423XXSP,2013-08-19 15:17:00,
2013-08-19 11:23:00,82.0,67.7,30.10,SW,225,3.0,5.0,62,0.00,,,0.00,WUHU21423XXSP,2013-08-19 15:23:00,
2013-08-19 11:30:00,82.2,67.4,30.09,SW,225,0.0,5.0,61,0.00,,,0.00,WUHU21423XXSP,2013-08-19 15:30:00,
2013-08-19 11:36:00,82.4,67.1,30.09,NNW,337,2.0,2.0,60,0.00,,,0.00,WUHU21423XXSP,2013-08-19 15:36:00,
2013-08-19 11:43:00,81.7,65.9,30.09,WNW,292,6.0,6.0,59,0.00,,,0.00,WUHU21423XXSP,2013-08-19 15:43:00,
2013-08-19 11:49:00,81.7,65.9,30.09,NW,315,4.0,6.0,59,0.00,,,0.00,WUHU21423XXSP,2013-08-19 15:49:00,
2013-08-19 11:55:00,81.3,65.6,30.09,West,270,0.0,4.0,59,0.00,,,0.00,WUHU21423XXSP,2013-08-19 15:55:00,
2013-08-19 12:02:00,80.6,63.9,30.09,WNW,292,8.0,8.0,57,0.00,,,0.00,WUHU21423XXSP,2013-08-19 16:02:00,
2013-08-19 12:08:00,79.9,62.7,30.09,NNW,337,7.0,8.0,56,0.00,,,0.00,WUHU21423XXSP,2013-08-19 16:08:00,
2013-08-19 12:15:00,78.6,61.6,30.09,NW,315,3.0,8.0,56,0.00,,,0.00,WUHU21423XXSP,2013-08-19 16:15:00,
2013-08-19 12:21:00,78.4,61.9,30.09,NW,315,0.0,3.0,57,0.00,,,0.00,WUHU21423XXSP,2013-08-19 16:21:00,
2013-08-19 12:28:00,78.4,60.9,30.09,NNW,337,6.0,7.0,55,0.00,,,0.00,WUHU21423XXSP,2013-08-19 16:28:00,
2013-08-19 12:34:00,79.0,61.9,30.08,NNW,337,6.0,7.0,56,0.00,,,0.00,WUHU21423XXSP,2013-08-19 16:34:00,
2013-08-19 12:40:00,79.5,63.5,30.09,West,270,3.0,6.0,58,0.00,,,0.00,WUHU21423XXSP,2013-08-19 16:40:00,
2013-08-19 12:47:00,80.2,62.5,30.08,WNW,292,3.0,3.0,55,0.00,,,0.00,WUHU21423XXSP,2013-08-19 16:47:00,
2013-08-19 12:53:00,79.9,62.2,30.08,NW,315,4.0,4.0,55,0.00,,,0.00,WUHU21423XXSP,2013-08-19 16:53:00,
2013-08-19 13:07:00,79.7,62.1,30.06,NNW,337,0.0,0.0,55,0.00,,,0.00,WUHU21623XXSP,2013-08-19 17:07:00,
2013-08-19 13:12:00,79.0,60.4,30.06,North,0,5.4,10.7,53,0.00,,,0.00,WUHU21623XXSP,2013-08-19 17:12:00,
2013-08-19 13:17:00,79.5,62.9,30.06,North,0,0.0,10.7,57,0.00,,,0.00,WUHU21623XXSP,2013-08-19 17:17:00,
2013-08-19 13:22:00,78.8,61.3,30.06,NW,315,0.2,9.4,55,0.00,,,0.00,WUHU21623XXSP,2013-08-19 17:22:00,
2013-08-19 13:27:00,79.3,61.7,30.07,NW,315,4.3,8.9,55,0.00,,,0.00,WUHU21623XXSP,2013-08-19 17:27:00,
2013-08-19 13:32:00,79.9,62.2,30.06,NNW,337,0.0,8.5,55,0.00,,,0.00,WUHU21623XXSP,2013-08-19 17:32:00,
2013-08-19 13:37:00,80.4,61.1,30.06,North,0,0.0,8.5,52,0.00,,,0.00,WUHU21623XXSP,2013-08-19 17:37:00,
2013-08-19 13:42:00,79.0,61.2,30.06,NNE,22,1.1,6.7,55,0.00,,,0.00,WUHU21623XXSP,2013-08-19 17:42:00,
2013-08-19 13:47:00,78.4,60.9,30.06,North,0,0.0,6.7,55,0.00,,,0.00,WUHU21623XXSP,2013-08-19 17:47:00,
2013-08-19 13:52:00,78.4,60.9,30.06,NNE,22,4.7,8.3,55,0.00,,,0.00,WUHU21623XXSP,2013-08-19 17:52:00,
2013-08-19 13:57:00,79.5,61.9,30.06,North,0,5.6,8.9,55,0.00,,,0.00,WUHU21623XXSP,2013-08-19 17:57:00,
2013-08-19 14:02:00,80.1,62.4,30.06,NNW,337,0.0,11.6,55,0.00,,,0.00,WUHU21623XXSP,2013-08-19 18:02:00,
2013-08-19 14:07:00,79.2,61.1,30.06,North,0,0.0,11.6,54,0.00,,,0.00,WUHU21623XXSP,2013-08-19 18:07:00,
2013-08-19 14:12:00,81.1,62.8,30.07,NW,315,0.0,0.0,54,0.00,,,0.00,WUHU21423XXSP,2013-08-19 18:12:00,
2013-08-19 14:17:00,80.8,63.0,30.08,NW,315,0.0,0.0,55,0.00,,,0.00,WUHU21423XXSP,2013-08-19 18:17:00,
2013-08-19 14:23:00,80.2,62.5,30.08,NNW,337,0.0,0.0,55,0.00,,,0.00,WUHU21423XXSP,2013-08-19 18:23:00,
2013-08-19 14:30:00,79.9,62.2,30.08,WNW,292,0.0,6.0,55,0.00,,,0.00,WUHU21423XXSP,2013-08-19 18:30:00,
2013-08-19 14:36:00,79.5,61.4,30.08,West,270,0.0,7.0,54,0.00,,,0.00,WUHU21423XXSP,2013-08-19 18:36:00,
2013-08-19 14:43:00,80.2,63.1,30.08,NNW,337,0.0,6.0,56,0.00,,,0.00,WUHU21423XXSP,2013-08-19 18:43:00,
2013-08-19 14:49:00,81.1,63.4,30.07,WSW,247,8.0,8.0,55,0.00,,,0.00,WUHU21423XXSP,2013-08-19 18:49:00,
2013-08-19 14:55:00,82.0,63.6,30.08,West,270,0.0,8.0,54,0.00,,,0.00,WUHU21423XXSP,2013-08-19 18:55:00,
2013-08-19 15:02:00,82.6,64.1,30.08,SW,225,5.0,5.0,54,0.00,,,0.00,WUHU21423XXSP,2013-08-19 19:02:00,
2013-08-19 15:08:00,82.9,64.0,30.08,West,270,5.0,5.0,53,0.00,,,0.00,WUHU21423XXSP,2013-08-19 19:08:00,
2013-08-19 15:15:00,82.6,62.6,30.07,NW,315,0.0,6.0,51,0.00,,,0.00,WUHU21423XXSP,2013-08-19 19:15:00,
2013-08-19 15:21:00,82.0,62.1,30.07,NW,315,0.0,0.0,51,0.00,,,0.00,WUHU21423XXSP,2013-08-19 19:21:00,
2013-08-19 15:27:00,82.0,62.6,30.07,WNW,292,6.0,6.0,52,0.00,,,0.00,WUHU21423XXSP,2013-08-19 19:27:00,
2013-08-19 15:35:00,80.8,61.5,30.07,NW,315,0.0,8.0,52,0.00,,,0.00,WUHU21423XXSP,2013-08-19 19:35:00,
2013-08-19 15:40:00,80.8,62.0,30.07,NW,315,0.0,5.0,53,0.00,,,0.00,WUHU21423XXSP,2013-08-19 19:40:00,
2013-08-19 15:47:00,81.1,62.8,30.07,WSW,247,5.0,5.0,54,0.00,,,0.00,WUHU21423XXSP,2013-08-19 19:47:00,
2013-08-19 15:53:00,81.7,63.3,30.06,WNW,292,5.0,5.0,54,0.00,,,0.00,WUHU21423XXSP,2013-08-19 19:53:00,
2013-08-19 16:00:00,81.7,62.8,30.06,SW,225,0.0,7.0,53,0.00,,,0.00,WUHU21423XXSP,2013-08-19 20:00:00,
2013-08-19 16:06:00,82.0,63.6,30.06,WSW,247,0.0,7.0,54,0.00,,,0.00,WUHU21423XXSP,2013-08-19 20:06:00,
2013-08-19 16:12:00,82.4,64.0,30.06,West,270,0.0,6.0,54,0.00,,,0.00,WUHU21423XXSP,2013-08-19 20:12:00,
2013-08-19 16:19:00,82.9,64.0,30.06,WNW,292,1.0,6.0,53,0.00,,,0.00,WUHU21423XXSP,2013-08-19 20:19:00,
2013-08-19 16:25:00,83.3,64.3,30.06,West,270,0.0,1.0,53,0.00,,,0.00,WUHU21423XXSP,2013-08-19 20:25:00,
2013-08-19 16:32:00,83.8,64.4,30.06,SSW,202,4.0,5.0,52,0.00,,,0.00,WUHU21423XXSP,2013-08-19 20:32:00,
2013-08-19 16:38:00,84.0,65.1,30.06,SW,225,0.0,5.0,53,0.00,,,0.00,WUHU21423XXSP,2013-08-19 20:38:00,
2013-08-19 16:44:00,84.4,65.4,30.06,WSW,247,7.0,8.0,53,0.00,,,0.00,WUHU21423XXSP,2013-08-19 20:44:00,
2013-08-19 16:51:00,84.4,65.4,30.06,SW,225,5.0,7.0,53,0.00,,,0.00,WUHU21423XXSP,2013-08-19 20:51:00,
2013-08-19 16:57:00,84.4,65.9,30.06,SW,225,6.0,6.0,54,0.00,,,0.00,WUHU21423XXSP,2013-08-19 20:57:00,
2013-08-19 17:04:00,84.4,65.4,30.05,SSW,202,2.0,10.0,53,0.00,,,0.00,WUHU21423XXSP,2013-08-19 21:04:00,
2013-08-19 17:10:00,83.8,64.9,30.06,SW,225,5.0,10.0,53,0.00,,,0.00,WUHU21423XXSP,2013-08-19 21:10:00,
2013-08-19 17:17:00,83.5,64.5,30.06,SW,225,6.0,8.0,53,0.00,,,0.00,WUHU21423XXSP,2013-08-19 21:17:00,
2013-08-19 17:23:00,83.1,64.7,30.05,WSW,247,6.0,7.0,54,0.00,,,0.00,WUHU21423XXSP,2013-08-19 21:23:00,
2013-08-19 17:29:00,82.9,64.5,30.05,West,270,2.0,6.0,54,0.00,,,0.00,WUHU21423XXSP,2013-08-19 21:29:00,
2013-08-19 17:36:00,82.6,64.1,30.06,SW,225,7.0,7.0,54,0.00,,,0.00,WUHU21423XXSP,2013-08-19 21:36:00,
2013-08-19 17:42:00,82.4,64.0,30.06,SW,225,7.0,7.0,54,0.00,,,0.00,WUHU21423XXSP,2013-08-19 21:42:00,
2013-08-19 17:49:00,82.2,64.3,30.06,WSW,247,0.0,7.0,55,0.00,,,0.00,WUHU21423XXSP,2013-08-19 21:49:00,
2013-08-19 17:55:00,81.7,63.6,30.06,West,270,0.0,8.0,55,0.00,,,0.00,WUHU21423XXSP,2013-08-19 21:55:00,
2013-08-19 18:02:00,81.5,63.7,30.06,SW,225,5.0,5.0,55,0.00,,,0.00,WUHU21423XXSP,2013-08-19 22:02:00,
2013-08-19 18:08:00,81.1,63.4,30.05,SW,225,4.0,8.0,55,0.00,,,0.00,WUHU21423XXSP,2013-08-19 22:08:00,
2013-08-19 18:14:00,81.0,63.7,30.05,West,270,0.0,8.0,56,0.00,,,0.00,WUHU21423XXSP,2013-08-19 22:14:00,
2013-08-19 18:21:00,80.8,63.6,30.05,West,270,0.0,7.0,56,0.00,,,0.00,WUHU21423XXSP,2013-08-19 22:21:00,
2013-08-19 18:27:00,80.4,63.2,30.05,WSW,247,5.0,7.0,56,0.00,,,0.00,WUHU21423XXSP,2013-08-19 22:27:00,
2013-08-19 18:34:00,79.9,63.3,30.05,WSW,247,6.0,6.0,57,0.00,,,0.00,WUHU21423XXSP,2013-08-19 22:34:00,
2013-08-19 18:40:00,79.5,62.9,30.05,WSW,247,8.0,8.0,57,0.00,,,0.00,WUHU21423XXSP,2013-08-19 22:40:00,
2013-08-19 18:47:00,79.2,63.1,30.05,SW,225,4.0,8.0,58,0.00,,,0.00,WUHU21423XXSP,2013-08-19 22:47:00,
2013-08-19 18:53:00,78.6,62.6,30.06,SW,225,3.0,6.0,58,0.00,,,0.00,WUHU21423XXSP,2013-08-19 22:53:00,
2013-08-19 18:59:00,78.3,62.8,30.05,SW,225,4.0,6.0,59,0.00,,,0.00,WUHU21423XXSP,2013-08-19 22:59:00,
2013-08-19 19:06:00,77.9,63.0,30.06,SW,225,1.0,6.0,60,0.00,,,0.00,WUHU21423XXSP,2013-08-19 23:06:00,
2013-08-19 19:12:00,77.5,62.6,30.06,WSW,247,5.0,8.0,60,0.00,,,0.00,WUHU21423XXSP,2013-08-19 23:12:00,
2013-08-19 19:19:00,76.8,61.9,30.06,WSW,247,7.0,8.0,60,0.00,,,0.00,WUHU21423XXSP,2013-08-19 23:19:00,
2013-08-19 19:25:00,76.1,61.3,30.05,SW,225,7.0,7.0,60,0.00,,,0.00,WUHU21423XXSP,2013-08-19 23:25:00,
2013-08-19 19:31:00,75.6,61.2,30.05,SW,225,5.0,7.0,61,0.00,,,0.00,WUHU21423XXSP,2013-08-19 23:31:00,
2013-08-19 19:38:00,74.8,60.5,30.05,SW,225,0.0,5.0,61,0.00,,,0.00,WUHU21423XXSP,2013-08-19 23:38:00,
2013-08-19 19:44:00,74.3,60.4,30.05,SW,225,0.0,0.0,62,0.00,,,0.00,WUHU21423XXSP,2013-08-19 23:44:00,
2013-08-19 19:51:00,73.8,60.3,30.06,SW,225,0.0,3.0,63,0.00,,,0.00,WUHU21423XXSP,2013-08-19 23:51:00,
2013-08-19 19:57:00,73.2,60.3,30.05,SW,225,8.0,8.0,64,0.00,,,0.00,WUHU21423XXSP,2013-08-19 23:57:00,
2013-08-19 20:04:00,72.3,59.9,30.06,SW,225,3.0,8.0,65,0.00,,,0.00,WUHU21423XXSP,2013-08-20 00:04:00,
2013-08-19 20:10:00,71.8,59.8,30.06,SW,225,4.0,6.0,66,0.00,,,0.00,WUHU21423XXSP,2013-08-20 00:10:00,
2013-08-19 20:16:00,70.9,59.3,30.05,SW,225,0.0,4.0,67,0.00,,,0.00,WUHU21423XXSP,2013-08-20 00:16:00,
2013-08-19 20:23:00,70.5,59.4,30.05,SW,225,0.0,4.0,68,0.00,,,0.00,WUHU21423XXSP,2013-08-20 00:23:00,
2013-08-19 20:29:00,70.0,59.3,30.05,SW,225,0.0,4.0,70,0.00,,,0.00,WUHU21423XXSP,2013-08-20 00:29:00,
2013-08-19 20:36:00,69.4,59.2,30.05,WSW,247,3.0,3.0,70,0.00,,,0.00,WUHU21423XXSP,2013-08-20 00:36:00,
2013-08-19 20:42:00,68.9,59.1,30.06,SW,225,4.0,4.0,71,0.00,,,0.00,WUHU21423XXSP,2013-08-20 00:42:00,
2013-08-19 20:49:00,68.5,59.5,30.05,SW,225,7.0,7.0,73,0.00,,,0.00,WUHU21423XXSP,2013-08-20 00:49:00,
2013-08-19 20:55:00,68.2,59.2,30.06,SW,225,3.0,7.0,73,0.00,,,0.00,WUHU21423XXSP,2013-08-20 00:55:00,
2013-08-19 21:01:00,67.8,58.9,30.06,SW,225,1.0,3.0,73,0.00,,,0.00,WUHU21423XXSP,2013-08-20 01:01:00,
2013-08-19 21:08:00,67.5,58.9,30.06,SW,225,3.0,3.0,74,0.00,,,0.00,WUHU21423XXSP,2013-08-20 01:08:00,
2013-08-19 21:14:00,67.1,58.9,30.06,SW,225,1.0,3.0,75,0.00,,,0.00,WUHU21423XXSP,2013-08-20 01:14:00,
2013-08-19 21:21:00,66.7,58.5,30.07,SW,225,3.0,3.0,75,0.00,,,0.00,WUHU21423XXSP,2013-08-20 01:21:00,
2013-08-19 21:27:00,66.6,58.7,30.07,SW,225,0.0,3.0,76,0.00,,,0.00,WUHU21423XXSP,2013-08-20 01:27:00,
2013-08-19 21:34:00,66.4,58.9,30.06,SW,225,0.0,1.0,77,0.00,,,0.00,WUHU21423XXSP,2013-08-20 01:34:00,
2013-08-19 21:40:00,66.0,58.6,30.06,WSW,247,0.0,0.0,77,0.00,,,0.00,WUHU21423XXSP,2013-08-20 01:40:00,
2013-08-19 21:46:00,65.8,59.0,30.07,SW,225,0.0,0.0,78,0.00,,,0.00,WUHU21423XXSP,2013-08-20 01:46:00,
2013-08-19 21:53:00,65.7,58.6,30.07,SW,225,0.0,0.0,78,0.00,,,0.00,WUHU21423XXSP,2013-08-20 01:53:00,
2013-08-19 21:59:00,65.3,58.6,30.07,SW,225,0.0,0.0,79,0.00,,,0.00,WUHU21423XXSP,2013-08-20 01:59:00,
2013-08-19 22:06:00,65.1,58.4,30.07,SW,225,0.0,0.0,79,0.00,,,0.00,WUHU21423XXSP,2013-08-20 02:06:00,
2013-08-19 22:12:00,64.9,58.3,30.07,SW,225,2.0,2.0,79,0.00,,,0.00,WUHU21423XXSP,2013-08-20 02:12:00,
2013-08-19 22:18:00,64.8,58.5,30.07,SW,225,0.0,2.0,80,0.00,,,0.00,WUHU21423XXSP,2013-08-20 02:18:00,
2013-08-19 22:25:00,64.6,58.6,30.07,SW,225,0.0,0.0,81,0.00,,,0.00,WUHU21423XXSP,2013-08-20 02:25:00,
2013-08-19 22:32:00,64.2,58.3,30.07,SW,225,0.0,0.0,81,0.00,,,0.00,WUHU21423XXSP,2013-08-20 02:32:00,
2013-08-19 22:38:00,64.2,58.3,30.07,SW,225,0.0,0.0,81,0.00,,,0.00,WUHU21423XXSP,2013-08-20 02:38:00,
2013-08-19 22:44:00,64.0,58.4,30.07,SW,225,0.0,0.0,82,0.00,,,0.00,WUHU21423XXSP,2013-08-20 02:44:00,
2013-08-19 22:51:00,64.0,58.4,30.07,SW,225,0.0,0.0,82,0.00,,,0.00,WUHU21423XXSP,2013-08-20 02:51:00,
2013-08-19 22:57:00,63.7,58.1,30.07,SW,225,0.0,0.0,82,0.00,,,0.00,WUHU21423XXSP,2013-08-20 02:57:00,
2013-08-19 23:04:00,63.5,58.4,30.07,SW,225,0.0,0.0,83,0.00,,,0.00,WUHU21423XXSP,2013-08-20 03:04:00,
2013-08-19 23:10:00,63.5,58.2,30.07,SW,225,0.0,0.0,83,0.00,,,0.00,WUHU21423XXSP,2013-08-20 03:10:00,
2013-08-19 23:16:00,63.3,58.4,30.07,SW,225,1.0,1.0,84,0.00,,,0.00,WUHU21423XXSP,2013-08-20 03:16:00,
2013-08-19 23:23:00,63.3,58.4,30.07,SW,225,0.0,1.0,84,0.00,,,0.00,WUHU21423XXSP,2013-08-20 03:23:00,
2013-08-19 23:30:00,63.3,58.7,30.07,SW,225,0.0,0.0,85,0.00,,,0.00,WUHU21423XXSP,2013-08-20 03:30:00,
2013-08-19 23:36:00,63.3,58.7,30.08,WSW,247,0.0,1.0,85,0.00,,,0.00,WUHU21423XXSP,2013-08-20 03:36:00,
2013-08-19 23:42:00,63.3,58.7,30.07,WSW,247,0.0,1.0,85,0.00,,,0.00,WUHU21423XXSP,2013-08-20 03:42:00,
2013-08-19 23:48:00,63.3,58.7,30.07,WSW,247,0.0,0.0,85,0.00,,,0.00,WUHU21423XXSP,2013-08-20 03:48:00,
2013-08-19 23:55:00,63.1,58.5,30.08,WSW,247,0.0,0.0,85,0.00,,,0.00,WUHU21423XXSP,2013-08-20 03:55:00,